Alyeska Resort
Hourly Weather - Mid Mountian Site
ALY_MID_HR 8/21/2017
CLICK TO VIEW GRAPH!!

        DATE  TIME   Air   H2o   H2o   New  Snow  BATT   Rel
                    Temp  Inch Since  Snow Depth  Volt  Hum%
                      F   1HR  0600   1HR         AVG   AVG

   8/21/2017 13:00    49  0.03  0.11  67.0  0.00 12.16    98
   8/21/2017 12:00    49  0.01  0.08  73.8  0.00 12.16    98
   8/21/2017 11:00    48  0.00  0.07  73.5  0.00 12.16    99
   8/21/2017 10:00    47  0.01  0.07  69.5  0.00 12.16    98
   8/21/2017 09:00    46  0.00  0.06  66.9  0.00 12.16    98
   8/21/2017 08:00    46  0.02  0.06  65.8  0.00 12.17    98
   8/21/2017 07:00    45  0.04  0.04  66.0  0.00 12.17    98
   8/21/2017 06:00    45  0.05  0.78  66.2  0.00 12.17    98
   8/21/2017 05:00    46  0.04  0.73  66.2  0.00 12.18    98
   8/21/2017 04:00    46  0.04  0.69  66.0  0.00 12.18    98
   8/21/2017 03:00    45  0.02  0.65  66.0  0.00 12.18    98
   8/21/2017 02:00    45  0.03  0.63  66.4  0.00 12.18    98
   8/21/2017 01:00    45  0.04  0.60  67.4  0.00 12.19    98
   8/20/2017 24:00    45  0.06  0.56  69.2  0.00 12.19    98
   8/20/2017 23:00    45  0.07  0.50  71.6  0.00 12.20    97
   8/20/2017 22:00    46  0.01  0.43  72.5  0.00 12.20    95
   8/20/2017 21:00    47  0.01  0.42  72.5  0.00 12.20    91
   8/20/2017 20:00    47  0.01  0.41  72.5  0.00 12.21    87
   8/20/2017 19:00    47  0.01  0.40  72.3  0.00 12.21    87
   8/20/2017 18:00    47  0.04  0.39  72.5  0.00 12.21    86
   8/20/2017 17:00    47  0.04  0.35  72.1  0.00 12.22    88
   8/20/2017 16:00    47  0.07  0.31  72.0  0.00 12.22    87
   8/20/2017 15:00    47  0.06  0.24  72.1  0.00 12.22    87
   8/20/2017 14:00    47  0.03  0.18  72.4  0.00 12.23    88


CLICK TO VIEW GRAPH!!